Wind_Speed
103 94 86 90 91 88 86 85 85 82 75 74 74 66 64 61 64 63 64 62 57 55 53 52 49 48 47 47 45 42 42 42 43 43 45 46 48 49 52 54 57 59 62 66
102 98 91 93 90 91 88 85 83 77 80 76 72 72 71 68 70 70 66 64 66 64 62 62 60 58 56 54 51 50 50 49 50 53 53 52 53 54 57 58 61 67 70 71
109 100 93 90 89 90 91 85 84 79 73 79 83 81 72 75 72 68 66 63 63 67 66 64 65 63 63 60 58 56 56 58 61 59 58 58 61 60 63 67 66 71 77 77
103 106 97 89 85 88 90 88 82 79 81 81 83 77 73 78 76 78 70 68 64 70 69 70 73 68 64 63 63 65 64 62 62 63 63 65 66 69 72 74 79 80 83 79
99 98 100 96 88 88 90 88 92 84 82 81 81 83 80 80 80 80 77 73 72 71 76 72 70 69 68 68 68 69 68 68 68 66 68 72 75 78 80 83 86 87 89 85
112 102 102 102 93 90 83 82 83 88 90 88 83 83 77 75 76 77 78 77 78 76 77 77 73 73 76 74 74 76 71 69 72 75 77 80 84 83 84 87 92 94 92 92
123 110 101 103 96 97 88 83 87 86 88 88 85 85 84 83 80 82 84 85 85 82 83 85 84 85 81 80 81 79 78 77 76 79 84 87 88 90 92 92 93 97 95 91
128 121 107 100 100 95 92 87 87 86 86 84 89 88 82 83 81 82 87 89 90 88 83 89 91 90 91 89 83 88 86 86 87 89 91 91 92 94 95 95 98 98 93 92
131 121 112 106 103 98 96 93 91 90 85 88 88 86 85 87 86 90 92 92 95 91 91 92 93 92 96 91 86 87 87 91 92 96 96 98 98 96 96 99 100 96 94 95
129 122 117 115 105 101 95 97 96 91 88 89 89 89 89 91 90 90 88 87 89 84 81 81 85 89 91 94 96 93 92 94 96 96 97 96 98 98 101 100 97 97 98 106
123 124 118 115 109 100 99 99 100 95 92 91 90 88 89 84 83 83 83 80 79 81 81 81 86 83 85 92 92 89 90 96 99 99 98 99 103 104 102 97 99 100 111 117
124 123 121 109 112 107 106 104 101 99 95 95 94 94 92 92 92 87 85 88 88 84 85 86 91 93 94 97 102 100 99 99 99 100 103 104 103 99 99 110 110 114 117 118
118 120 120 116 119 116 108 103 103 102 102 98 96 95 97 95 93 96 96 94 94 95 97 98 98 99 98 101 101 102 102 102 101 103 105 107 103 104 111 116 118 124 116 122
111 114 117 115 116 117 111 115 108 104 100 98 99 97 100 100 98 97 99 99 101 100 100 101 101 100 101 102 102 104 103 104 105 105 105 108 110 112 119 113 120 116 126 130
108 110 116 118 115 125 125 123 117 112 110 106 104 104 102 103 103 101 100 100 102 103 103 101 101 101 101 103 102 104 106 107 108 111 115 117 119 119 121 126 127 131 138 140
101 107 111 115 115 117 124 125 121 118 118 111 110 106 103 104 104 104 103 103 106 109 108 106 107 108 110 109 108 108 111 115 116 120 123 124 125 127 125 126 130 142 146 147
96 99 101 104 114 119 121 126 126 115 110 121 119 117 113 110 106 104 105 106 109 110 108 109 110 110 110 112 115 117 118 119 120 121 121 124 123 124 127 130 139 148 149 148
96 97 99 102 107 117 120 121 123 124 116 106 113 116 116 116 115 114 115 113 113 114 114 115 117 119 119 120 121 122 123 126 127 125 121 125 129 134 137 146 150 153 153 151
98 98 96 99 101 105 112 121 117 119 122 118 112 109 111 115 117 117 117 117 116 116 121 122 120 122 123 124 122 122 123 126 127 131 134 137 138 142 144 144 140 142 144 145
95 98 99 97 98 97 101 107 114 121 121 118 117 116 113 106 106 110 113 117 119 118 116 116 118 120 121 122 121 124 125 128 129 131 136 136 138 137 139 136 144 142 139 138
91 94 98 99 98 98 98 98 101 103 109 114 118 122 123 124 123 121 121 120 120 121 120 118 117 119 122 128 131 132 135 136 134 134 135 134 132 132 135 133 130 127 126 129
83 86 89 92 93 95 96 96 95 98 99 101 104 107 110 114 118 121 125 127 128 130 131 131 133 134 133 130 131 130 130 131 131 130 130 130 129 126 125 122 122 122 122 119
72 75 77 76 79 83 89 92 94 96 97 97 98 100 102 102 107 113 117 118 118 119 118 120 122 124 124 122 121 122 124 124 124 123 121 117 115 116 116 116 111 106 101 98
67 68 65 64 69 74 76 81 85 89 92 97 101 102 104 110 110 109 108 109 108 109 110 112 114 115 116 118 117 115 113 111 109 109 110 111 110 106 100 94 91 93 95 96
46 48 52 55 59 61 68 74 79 84 90 92 95 99 104 105 105 106 105 105 105 105 106 107 107 107 105 103 102 101 102 102 103 101 99 94 88 85 85 87 89 91 93 93
31 33 36 40 43 52 59 66 71 75 79 83 86 88 89 90 91 93 93 93 94 93 93 93 94 94 94 93 93 92 91 88 84 80 77 77 79 79 79 81 85 85 89 93
Wind_Direction
218 220 221 218 221 219 220 223 226 229 229 230 235 235 233 234 228 231 231 237 242 248 252 251 255 261 266 266 267 265 265 271 275 280 287 294 300 299 298 300 302 307 302 303
216 218 221 222 223 221 221 222 226 230 230 232 236 237 237 234 234 232 240 243 249 252 252 252 257 268 265 267 270 272 272 274 278 282 288 292 295 299 299 302 303 305 302 297
219 218 220 221 223 225 223 223 225 227 232 234 238 238 239 236 237 243 245 251 258 255 252 254 260 266 267 269 272 274 273 276 277 282 285 289 291 293 295 299 302 304 306 299
215 217 219 219 223 227 225 226 228 232 232 235 236 234 234 235 239 243 249 250 256 263 257 259 262 265 270 273 275 276 276 276 280 281 283 287 291 294 295 296 297 299 301 299
213 216 221 222 221 226 229 228 227 230 232 235 236 237 240 238 241 244 248 252 256 261 261 262 266 269 272 273 273 274 273 279 283 285 288 291 292 294 294 295 296 296 298 298
213 213 217 219 221 226 227 228 229 230 233 237 239 240 237 243 246 248 250 254 256 258 257 261 262 264 270 273 278 278 276 275 282 287 290 292 290 291 292 292 295 296 296 296
219 212 215 220 218 225 224 227 231 230 232 235 240 241 244 247 247 253 256 254 254 255 258 260 261 263 267 269 277 278 277 279 280 283 284 284 286 289 290 292 293 296 294 291
220 218 217 219 220 225 227 226 228 232 235 236 236 241 245 247 249 252 251 254 255 256 260 262 262 264 267 271 274 276 278 278 280 281 282 284 285 285 289 290 292 290 289 292
221 220 220 216 220 226 229 226 229 230 231 236 237 240 242 243 247 250 252 253 255 258 260 260 261 264 265 267 272 271 274 274 276 279 282 283 285 286 287 289 290 289 289 290
221 222 222 221 224 224 227 228 228 227 230 232 236 240 241 240 243 245 248 253 255 260 264 265 264 265 268 269 270 271 273 276 277 279 279 283 283 287 288 291 290 289 289 293
220 221 219 221 219 223 225 227 229 228 232 232 232 237 239 238 241 244 248 251 254 256 256 258 260 260 261 263 266 268 270 277 280 282 283 284 287 288 289 287 288 288 292 293
221 222 221 216 217 217 221 225 227 228 229 232 232 234 239 241 243 243 244 244 247 250 254 256 257 260 259 264 269 273 275 278 279 281 281 286 287 286 286 288 290 293 292 295
221 221 222 218 217 218 223 227 226 229 231 232 235 236 238 241 245 246 246 250 252 252 254 256 260 263 265 269 272 275 277 278 278 280 283 287 286 285 289 288 291 292 291 293
221 220 221 222 219 218 220 227 227 228 232 234 237 240 241 244 245 247 250 252 253 253 256 259 261 266 269 271 274 275 275 277 280 282 283 284 286 287 291 288 290 287 292 291
221 222 220 221 219 219 221 224 229 227 232 234 236 238 240 244 246 250 253 255 256 257 258 259 261 264 267 269 271 273 278 280 281 283 285 286 287 288 288 289 289 290 292 293
221 224 223 221 222 222 223 225 228 234 232 233 237 239 241 245 247 250 253 256 256 257 258 259 259 263 267 270 271 272 276 279 282 284 285 285 286 289 286 281 282 291 293 296
223 225 224 224 223 224 226 227 229 234 238 238 236 238 240 243 248 251 251 251 255 257 259 261 263 266 268 270 272 274 278 279 281 283 286 287 288 288 287 283 284 290 294 293
221 226 226 225 225 226 227 230 231 233 236 239 242 243 242 244 247 248 250 252 255 257 259 262 264 267 269 271 272 274 274 279 283 285 285 285 287 288 289 291 290 290 292 293
222 226 228 229 229 229 228 229 232 234 237 240 241 242 245 247 249 252 254 255 256 259 260 262 265 266 269 272 276 278 279 280 282 283 285 287 286 285 288 290 291 292 294 295
226 227 227 230 231 233 234 233 234 236 237 241 244 246 246 248 252 255 257 259 261 262 264 266 269 271 273 273 276 278 280 282 282 282 283 287 287 289 288 292 294 293 294 294
227 228 229 232 233 234 235 236 238 240 241 242 245 247 249 251 253 254 255 256 258 259 261 262 264 266 268 270 272 275 281 283 285 286 288 288 288 289 292 292 293 295 294 293
226 229 233 235 236 237 239 240 241 242 244 246 248 250 252 253 255 257 259 261 262 264 265 267 269 273 276 278 279 281 282 283 285 286 288 290 291 291 292 292 292 292 292 294
234 233 231 234 237 239 242 243 245 246 247 249 250 251 253 256 257 257 258 260 262 265 267 270 271 273 276 278 280 282 284 285 285 287 288 289 289 289 290 290 293 293 295 296
235 238 240 238 237 238 239 242 243 245 246 247 249 250 252 253 256 259 262 264 266 268 269 272 274 276 278 280 281 282 283 284 284 285 286 288 288 290 291 293 294 296 298 299
230 234 235 238 239 239 238 238 238 240 242 245 247 249 251 254 257 260 263 266 268 271 273 274 275 277 278 279 279 280 282 283 285 285 286 287 290 292 294 296 298 299 298 299
223 223 224 224 227 233 237 239 241 243 246 248 250 252 256 258 261 263 266 268 270 271 272 273 274 275 276 277 279 280 281 282 284 286 290 293 296 297 298 298 299 300 303 303
Height
10625 10639 10656 10665 10673 10686 10698 10704 10715 10724 10738 10747 10751 10756 10760 10766 10770 10777 10781 10784 10788 10793 10797 10797 10798 10800 10801 10802 10804 10805 10806 10805 10805 10804 10803 10801 10801 10800 10799 10796 10793 10791 10788 10784
10614 10635 10640 10649 10660 10675 10689 10696 10707 10718 10731 10737 10739 10744 10751 10756 10762 10765 10771 10776 10781 10785 10785 10787 10790 10792 10794 10794 10795 10796 10797 10796 10795 10795 10794 10792 10790 10787 10786 10784 10781 10779 10776 10771
10602 10617 10625 10638 10652 10664 10678 10688 10698 10708 10716 10723 10727 10734 10743 10748 10753 10758 10763 10768 10772 10773 10776 10778 10780 10782 10783 10784 10786 10787 10787 10786 10785 10784 10783 10781 10779 10776 10774 10772 10770 10767 10763 10760
10581 10597 10613 10626 10641 10650 10665 10678 10687 10694 10700 10710 10716 10725 10732 10738 10744 10748 10752 10758 10762 10763 10765 10768 10770 10771 10772 10773 10775 10776 10775 10774 10774 10773 10771 10769 10767 10764 10760 10758 10756 10753 10749 10745
10580 10591 10607 10618 10629 10637 10653 10665 10674 10682 10687 10695 10701 10709 10721 10726 10735 10740 10742 10746 10749 10752 10751 10754 10756 10757 10760 10762 10763 10763 10763 10761 10760 10758 10757 10756 10754 10751 10749 10744 10741 10737 10733 10729
10563 10574 10583 10601 10614 10627 10639 10651 10661 10669 10675 10678 10688 10697 10710 10715 10725 10725 10730 10734 10737 10739 10742 10745 10747 10748 10749 10749 10751 10750 10749 10746 10745 10745 10744 10742 10740 10738 10734 10730 10725 10720 10716 10711
10542 10560 10575 10587 10600 10612 10627 10640 10646 10652 10658 10672 10682 10684 10698 10703 10709 10715 10718 10720 10723 10727 10732 10733 10735 10737 10737 10737 10739 10737 10736 10734 10733 10733 10731 10728 10726 10724 10719 10713 10709 10704 10699 10693
10527 10546 10568 10580 10593 10610 10620 10626 10633 10643 10652 10666 10671 10675 10687 10692 10695 10701 10703 10705 10709 10715 10719 10719 10720 10723 10724 10724 10724 10723 10722 10722 10720 10718 10716 10714 10711 10707 10702 10697 10691 10686 10680 10674
10519 10542 10555 10569 10583 10592 10605 10617 10620 10630 10641 10650 10656 10666 10675 10682 10686 10689 10691 10692 10693 10699 10703 10706 10708 10710 10709 10710 10708 10710 10711 10708 10705 10704 10701 10698 10694 10689 10683 10677 10671 10665 10659 10652
10507 10527 10544 10557 10567 10581 10592 10598 10607 10620 10628 10638 10646 10650 10658 10667 10672 10677 10678 10677 10683 10683 10685 10688 10691 10694 10692 10692 10694 10692 10692 10692 10691 10687 10683 10679 10674 10668 10663 10658 10651 10644 10637 10630
10486 10508 10524 10541 10555 10570 10576 10588 10598 10607 10617 10626 10633 10639 10645 10650 10657 10660 10665 10666 10666 10668 10673 10675 10674 10675 10675 10674 10675 10675 10673 10672 10670 10668 10663 10659 10653 10648 10642 10636 10629 10621 10614 10604
10471 10491 10503 10532 10540 10553 10560 10574 10583 10589 10601 10608 10616 10625 10630 10637 10642 10647 10649 10651 10655 10656 10657 10657 10658 10658 10660 10660 10659 10658 10653 10652 10650 10647 10642 10638 10633 10625 10620 10614 10605 10595 10586 10580
10456 10471 10490 10514 10524 10537 10550 10560 10570 10575 10584 10594 10603 10614 10616 10621 10628 10632 10634 10638 10641 10643 10643 10643 10642 10642 10642 10641 10640 10639 10637 10634 10630 10626 10623 10618 10612 10603 10597 10590 10580 10573 10563 10555
10442 10458 10477 10502 10523 10533 10544 10547 10557 10565 10573 10584 10592 10597 10600 10604 10609 10613 10617 10623 10627 10629 10630 10630 10628 10626 10625 10624 10623 10620 10617 10614 10611 10607 10602 10597 10590 10582 10573 10563 10556 10546 10538 10528
10426 10440 10457 10478 10498 10509 10517 10523 10527 10543 10554 10562 10570 10576 10579 10585 10592 10599 10604 10609 10611 10612 10612 10611 10610 10610 10609 10607 10606 10602 10599 10594 10589 10585 10579 10572 10565 10557 10550 10540 10530 10520 10509 10498
10418 10428 10448 10467 10485 10494 10502 10511 10524 10528 10540 10551 10558 10563 10567 10573 10579 10584 10589 10592 10591 10592 10593 10592 10591 10592 10591 10590 10588 10584 10580 10575 10571 10563 10556 10549 10542 10533 10525 10515 10503 10490 10480 10468
10406 10417 10434 10452 10464 10471 10479 10499 10509 10518 10523 10530 10539 10544 10547 10555 10566 10572 10571 10572 10573 10574 10575 10574 10573 10573 10572 10570 10567 10563 10560 10555 10549 10542 10535 10526 10516 10507 10497 10487 10477 10464 10451 10438
10392 10400 10413 10431 10441 10452 10473 10481 10494 10502 10508 10515 10525 10531 10540 10546 10548 10552 10554 10555 10554 10554 10555 10555 10555 10553 10551 10549 10545 10543 10538 10532 10526 10518 10509 10501 10491 10482 10473 10462 10448 10434 10420 10405
10376 10386 10400 10414 10427 10442 10454 10466 10477 10486 10493 10498 10504 10513 10523 10527 10531 10533 10534 10534 10535 10535 10535 10535 10533 10531 10529 10527 10524 10519 10513 10506 10499 10492 10485 10477 10467 10456 10444 10429 10416 10403 10390 10375
10367 10380 10389 10402 10414 10428 10439 10449 10461 10470 10479 10484 10489 10496 10503 10509 10513 10513 10514 10514 10515 10515 10514 10512 10511 10511 10508 10505 10501 10494 10488 10482 10476 10468 10460 10449 10436 10424 10414 10399 10388 10373 10357 10343
10357 10366 10377 10389 10402 10413 10421 10433 10443 10458 10462 10466 10473 10479 10484 10488 10490 10492 10493 10492 10491 10489 10488 10489 10488 10487 10485 10481 10477 10472 10463 10457 10449 10438 10428 10417 10408 10396 10384 10370 10359 10339 10327 10313
10347 10359 10369 10380 10393 10405 10413 10421 10432 10434 10444 10451 10455 10460 10464 10467 10469 10469 10467 10465 10464 10464 10467 10469 10466 10464 10460 10456 10451 10444 10437 10429 10420 10410 10399 10389 10378 10364 10354 10341 10327 10316 10303 10289
10338 10346 10359 10374 10384 10393 10401 10408 10415 10421 10427 10432 10436 10438 10441 10448 10448 10441 10435 10434 10441 10446 10450 10448 10445 10442 10437 10430 10424 10419 10410 10401 10393 10383 10373 10363 10352 10341 10328 10315 10303 10290 10280 10268
10327 10337 10349 10361 10372 10377 10384 10390 10395 10401 10405 10406 10408 10413 10416 10411 10414 10420 10424 10426 10429 10430 10428 10427 10423 10417 10412 10406 10399 10391 10383 10375 10366 10357 10348 10338 10326 10315 10304 10293 10282 10271 10259 10247
10319 10329 10337 10345 10352 10360 10362 10364 10369 10372 10375 10382 10387 10390 10391 10395 10400 10404 10408 10410 10410 10409 10406 10402 10398 10394 10388 10381 10373 10366 10358 10350 10342 10333 10324 10314 10304 10295 10285 10274 10263 10250 10239 10227
10308 10315 10320 10329 10337 10338 10343 10348 10353 10357 10361 10366 10372 10377 10382 10384 10386 10388 10390 10390 10388 10386 10383 10379 10374 10369 10364 10358 10351 10344 10338 10330 10322 10313 10305 10297 10287 10277 10266 10254 10240 10230 10212 10198